Boscobel, WI

6:36 AM CDT on May 23, 2017 (GMT -0500)
Boscobel

Weather History for KOVS - November, 2011

Change the Weather History Date:

Sunday, November 27, 2011

  Actual Average (KPDC) Record (KPDC)
Temperature  
Mean Temperature 36 °F -  
Max Temperature 39 °F 40 °F 68 °F (1990)
Min Temperature 33 °F 24 °F 3 °F (1959)
Degree Days  
Heating Degree Days 29    
Moisture  
Dew Point 26 °F    
Average Humidity 68    
Maximum Humidity 76    
Minimum Humidity 62    
Precipitation  
Precipitation 0.00 in - - ()
Sea Level Pressure  
Sea Level Pressure 30.10 in    
Wind  
Wind Speed 9 mph (NNW)    
Max Wind Speed 13 mph    
Max Gust Speed 22 mph    
Visibility 10 miles    
Events      
Averages and records for this station are not official NWS values.
T = Trace of Precipitation, MM = Missing Value Source: NWS Daily Summary

Daily Weather History Graph

Daily Weather History Graph

Search for Another Location

Airport or City:

Trip Planner

Search our weather history database for the weather conditions in past years. The results will help you decide how hot, cold, wet, or windy it might be!

Date:

Astronomy

Nov. 27, 2011 Rise Set
Actual Time 7:09 AM CST 4:30 PM CST
Civil Twilight 6:38 AM CST 5:01 PM CST
Nautical Twilight 6:03 AM CST 5:37 PM CST
Astronomical Twilight 5:29 AM CST 6:11 PM CST
Moon 9:35 AM CST (11/27) 7:08 PM CST (11/27)
Length of Visible Light 10h 23m
Length of Day
9h 20m
Waxing Crescent, 8% of the Moon is Illuminated
Nov 27
Waxing Crescent
Dec 2
First Quarter
Dec 10
Full
Dec 17
Last Quarter
Dec 24
New

Hourly Weather History & Observations

Time (CST) Temp. Windchill Dew Point Humidity Pressure Visibility Wind Dir Wind Speed Gust Speed Precip Events Conditions
12:53 AM 39.0 °F 32.8 °F 32.0 °F 76% 29.95 in 10.0 mi North 9.2 mph - N/A   Overcast
1:53 AM 39.0 °F 31.4 °F 32.0 °F 76% 29.96 in 10.0 mi NNW 12.7 mph 20.7 mph N/A   Overcast
2:53 AM 37.9 °F 31.5 °F 30.0 °F 73% 29.96 in 10.0 mi NNW 9.2 mph 18.4 mph N/A   Overcast
3:53 AM 37.0 °F 29.3 °F 28.9 °F 73% 29.99 in 10.0 mi North 11.5 mph 17.3 mph N/A   Overcast
4:53 AM 37.0 °F 30.4 °F 28.9 °F 73% 30.01 in 10.0 mi NNW 9.2 mph 17.3 mph N/A   Overcast
5:53 AM 37.0 °F 30.4 °F 28.0 °F 70% 30.02 in 10.0 mi North 9.2 mph 18.4 mph N/A   Overcast
6:40 AM 37.4 °F 31.4 °F 28.4 °F 70% 30.02 in 10.0 mi NW 8.1 mph - N/A   Overcast
6:53 AM 37.0 °F 30.4 °F 28.0 °F 70% 30.04 in 10.0 mi NNW 9.2 mph 16.1 mph N/A   Overcast
7:53 AM 37.0 °F 29.3 °F 27.0 °F 67% 30.06 in 10.0 mi North 11.5 mph 18.4 mph N/A   Overcast
9:53 AM 36.0 °F 29.6 °F 26.1 °F 67% 30.10 in 10.0 mi North 8.1 mph 21.9 mph N/A   Overcast
10:53 AM 37.0 °F 30.4 °F 27.0 °F 67% 30.10 in 10.0 mi North 9.2 mph 19.6 mph N/A   Overcast
11:53 AM 37.0 °F 28.9 °F 27.0 °F 67% 30.10 in 10.0 mi NW 12.7 mph 18.4 mph N/A   Overcast
12:53 PM 36.0 °F 28.0 °F 26.1 °F 67% 30.12 in 10.0 mi North 11.5 mph 17.3 mph N/A   Overcast
1:53 PM 36.0 °F 28.0 °F 26.1 °F 67% 30.12 in 10.0 mi NNW 11.5 mph - N/A   Overcast
2:53 PM 36.0 °F 29.0 °F 26.1 °F 67% 30.14 in 10.0 mi NNW 9.2 mph - N/A   Overcast
3:53 PM 36.0 °F 28.5 °F 24.1 °F 62% 30.16 in 10.0 mi NNW 10.4 mph - N/A   Overcast
4:53 PM 35.1 °F 26.9 °F 24.1 °F 64% 30.17 in 10.0 mi North 11.5 mph - N/A   Overcast
5:53 PM 34.0 °F 28.8 °F 23.0 °F 64% 30.19 in 10.0 mi North 5.8 mph - N/A   Overcast
6:53 PM 34.0 °F 28.8 °F 24.1 °F 67% 30.19 in 10.0 mi North 5.8 mph - N/A   Overcast
7:53 PM 34.0 °F 28.0 °F 23.0 °F 64% 30.20 in 10.0 mi North 6.9 mph - N/A   Overcast
8:53 PM 33.1 °F 27.7 °F 23.0 °F 66% 30.22 in 10.0 mi NNW 5.8 mph - N/A   Overcast
9:53 PM 33.1 °F 28.7 °F 21.9 °F 64% 30.22 in 10.0 mi North 4.6 mph - N/A   Overcast
10:53 PM 33.1 °F - 21.9 °F 64% 30.19 in 10.0 mi Calm Calm - N/A   Overcast
11:53 PM 33.1 °F 26.9 °F 23.0 °F 66% 30.22 in 10.0 mi NW 6.9 mph - N/A   Overcast